[[{"header":{"parameterUnit":"m.s-1","parameterCategory":2,"la1":30.2991,"la2":30.254,"lo1":-89.0895,"lo2":-89.0444,"dy":0.0017,"dx":0.0017,"nx":28,"ny":28,"refTime":"2023-04-03T21:00:00:Z","depth":"0","parameterNumber":2,"parameterNumberName":"U-component_of_CURRENTS"},"data":[0,0,0,0,0,0,0,0,0,0,0,0,0,0,0,0,0,0,0,0,0,0,0,0,0,0,0,0,0,0,0,0,0,0,0,0,0,0,0,0,0,0,0,0,0,0,0,0,0,0,0,0,0,0,0,0,0,0,0.2555,0.2555,0,0.2558,0.2558,0.2558,0.2539,0.2539,0.2539,0.2539,0.2508,0.2507,0.2506,0,0,0,0,0,0,0,0,0,0,0,0,0,0.2493,0.2494,0.2555,0.2555,0.2556,0.2558,0.2558,0.2558,0.2539,0.2539,0.2539,0.2539,0.2508,0.2507,0.2506,0,0,0,0,0,0,0,0,0,0,0,0,0,0.2506,0.2494,0.2555,0.2551,0.2551,0.2559,0.2558,0.2558,0.2539,0.2539,0.2539,0.2539,0.2508,0.2507,0.2506,0.2502,0,0,0.2503,0.2502,0,0,0,0,0,0,0,0,0.2505,0.2508,0.2551,0.2551,0.2551,0.2552,0.2525,0.2539,0.2539,0.2538,0.2539,0.2538,0.2523,0.2521,0.2515,0.2501,0.2499,0.2503,0.2502,0.2502,0.2501,0,0,0,0,0,0,0,0.2504,0.2507,0.2551,0.2551,0.2552,0.2535,0.2537,0.2527,0.2527,0.2538,0.2538,0.2546,0.2522,0.2516,0.2514,0.2499,0.2503,0.2502,0.2501,0.2501,0.2538,0.2539,0,0,0,0,0,0,0.2516,0.2507,0.2551,0.2552,0.2533,0.2537,0.2538,0.2548,0.2528,0.2526,0.2546,0.2546,0.2518,0.2516,0.2513,0.254,0.2502,0.2501,0.25,0.2536,0.2538,0.254,0,0,0,0,0,0,0.2515,0.252,0.2551,0.2533,0.2536,0.2539,0.2549,0.2548,0.2547,0.2535,0.2532,0.2547,0.2518,0.2515,0.2527,0.2537,0.25,0.2499,0.2534,0.2537,0.2539,0.2572,0,0,0,0,0,0,0.2513,0.252,0.253,0.2534,0.2538,0.2564,0.255,0.2549,0.2554,0.2553,0.2535,0.2531,0.2518,0.2529,0.2526,0.2535,0.2498,0.2532,0.2535,0.2538,0.2568,0.2575,0.258,0,0,0,0,0,0.2511,0.2524,0.253,0.2536,0.2552,0.2565,0.2565,0.2563,0.2554,0.2559,0.2558,0.2532,0.2546,0.2529,0.2525,0.2534,0.2531,0.2534,0.2538,0.2566,0.2574,0.258,0,0,0,0,0,0,0.2494,0.2524,0.253,0.255,0.2563,0.2564,0.2568,0.2567,0.2567,0.2564,0.2549,0.2547,0.2565,0.2551,0.2533,0.2559,0.2535,0.2539,0.2558,0.2565,0.2571,0.2583,0.2497,0,0,0,0,0,0.2499,0.2518,0.2541,0.2554,0.2564,0.2566,0.2571,0.257,0.2574,0.2573,0.2564,0.2563,0.2576,0.2572,0.2577,0.2582,0.2607,0.259,0.2596,0.2601,0.2611,0.267,0.2683,0.2552,0.2552,0.2552,0,0,0.2492,0.2514,0.2522,0.2552,0.2558,0.2572,0.2567,0.2576,0.2586,0.257,0.2576,0.2583,0.2587,0.2603,0.2608,0.2589,0.2654,0.2605,0.2609,0.2617,0.2676,0.2688,0.27,0.2554,0.2554,0.2554,0,0,0.2488,0.2511,0.2527,0.2543,0.2566,0.2574,0.258,0.2589,0.2594,0.2607,0.2609,0.263,0.2626,0.2641,0.2647,0.269,0.2691,0.2686,0.2713,0.277,0.2782,0.2792,0.285,0.2865,0.268,0.268,0.268,0,0.2476,0.2503,0.253,0.2549,0.2562,0.2577,0.2589,0.2602,0.2611,0.2625,0.2614,0.2651,0.2648,0.2688,0.2708,0.2701,0.2738,0.2679,0.2778,0.2788,0.2798,0.2855,0.2871,0.2682,0.2682,0.2682,0.2682,0,0.2487,0.2507,0.2515,0.2549,0.2568,0.2578,0.2608,0.2626,0.2633,0.2645,0.2686,0.2698,0.2721,0.2726,0.2728,0.2795,0.2802,0.2784,0.2756,0.2813,0.287,0.2886,0.2685,0.2685,0.2684,0.2683,0,0,0.2446,0.251,0.2508,0.2525,0.2567,0.2577,0.2615,0.2651,0.2671,0.2695,0.2729,0.2765,0.2777,0.2788,0.2796,0.2843,0.2945,0.2845,0.2847,0.2898,0.3086,0.312,0.3141,0.2947,0.295,0.2952,0.3101,0,0.2436,0.2472,0.2508,0.2528,0.2547,0.2586,0.2616,0.2654,0.2683,0.2722,0.2764,0.2797,0.2799,0.2814,0.2868,0.2929,0.2988,0.2907,0.3028,0.3032,0.3051,0.3161,0.3181,0.3319,0.3117,0.3119,0.3121,0,0.2425,0.2453,0.2478,0.2525,0.2535,0.2551,0.2603,0.2632,0.2705,0.2734,0.2791,0.2823,0.2912,0.2894,0.3042,0.2993,0.3051,0.3092,0.3098,0.3131,0.3097,0.3229,0.3356,0.3284,0.3146,0.3144,0.3142,0,0.2375,0.2424,0.2442,0.2457,0.2517,0.2536,0.2566,0.2629,0.2656,0.2749,0.2778,0.2882,0.2931,0.3033,0.313,0.3098,0.3289,0.3249,0.3335,0.3337,0.338,0.3382,0.3448,0.336,0.3359,0.3359,0.3359,0,0.2349,0.2353,0.2419,0.2425,0.2441,0.2499,0.2519,0.2572,0.2644,0.2683,0.2776,0.2831,0.297,0.3084,0.3169,0.3324,0.3328,0.338,0.3394,0.3393,0.3394,0.3351,0.3243,0.3365,0.3363,0.3362,0.3361,0,0.2284,0.2328,0.2344,0.2404,0.2417,0.2425,0.2477,0.2501,0.2579,0.2641,0.2676,0.2819,0.2997,0.3135,0.3313,0.3371,0.3436,0.3549,0.3544,0.3556,0.3563,0.3455,0.3352,0.3265,0.3689,0.3691,0.3693,0,0.2252,0.2258,0.2309,0.2312,0.2333,0.2356,0.2375,0.2458,0.2496,0.2628,0.2665,0.2847,0.2977,0.3268,0.3459,0.3664,0.3503,0.3751,0.3693,0.3606,0.3496,0.3261,0.3177,0.3767,0.3769,0.3771,0.3773,0,0.2177,0.2196,0.2214,0.2232,0.2247,0.2266,0.2309,0.2332,0.2444,0.2521,0.2648,0.2761,0.3081,0.3316,0.3591,0.3723,0.3593,0.3792,0.3712,0.3587,0.3326,0.3235,0.3611,0.3788,0.3787,0.3786,0.3785,0.3784,0.2101,0.2094,0.2119,0.2128,0.2151,0.2167,0.2166,0.2249,0.2315,0.2431,0.2584,0.2755,0.3118,0.3536,0.3669,0.3902,0.3692,0.3864,0.3753,0.3532,0.3404,0.3817,0.3992,0.3991,0.3991,0.3991,0.399,0,0.1987,0.1995,0.2009,0.2019,0.2016,0.206,0.2109,0.2121,0.2192,0.2369,0.2499,0.2856,0.317,0.3497,0.3872,0.3859,0.3716,0.3779,0.3469,0.3397,0.3835,0.3799,0.3927,0.3927,0.3927,0.3927,0.3927,0.3927,0.1918,0.1888,0.1908,0.1871,0.1885,0.1865,0.1878,0.1944,0.2062,0.2257,0.245,0.2638,0.304,0.3469,0.3707,0.371,0.3434,0.3331,0.3187,0.3538,0.3536,0.3534,0.3482,0.354,0.354,0.2726,0.272,0.2715]},{"header":{"parameterUnit":"m.s-1","parameterCategory":2,"la1":30.2991,"la2":30.254,"lo1":-89.0895,"lo2":-89.0444,"dy":0.0017,"dx":0.0017,"nx":28,"ny":28,"refTime":"2023-04-03T21:00:00:Z","depth":"0","parameterNumber":3,"parameterNumberName":"V-component_of_CURRENTS"},"data":[0,0,0,0,0,0,0,0,0,0,0,0,0,0,0,0,0,0,0,0,0,0,0,0,0,0,0,0,0,0,0,0,0,0,0,0,0,0,0,0,0,0,0,0,0,0,0,0,0,0,0,0,0,0,0,0,0,0,0.0451,0.0452,0,0.0456,0.0455,0.0455,0.0426,0.0425,0.0425,0.0424,0.0384,0.0384,0.0383,0,0,0,0,0,0,0,0,0,0,0,0,0,0.0365,0.0367,0.0451,0.0452,0.0452,0.0456,0.0455,0.0455,0.0426,0.0425,0.0424,0.0424,0.0385,0.0384,0.0383,0,0,0,0,0,0,0,0,0,0,0,0,0,0.0387,0.0368,0.0451,0.044,0.0439,0.0456,0.0455,0.0455,0.0426,0.0425,0.0424,0.0424,0.0385,0.0384,0.0383,0.0396,0,0,0.0381,0.0381,0,0,0,0,0,0,0,0,0.0386,0.039,0.0441,0.0441,0.044,0.0442,0.0411,0.0434,0.0426,0.0428,0.0424,0.0423,0.0402,0.04,0.0399,0.0394,0.0392,0.0381,0.038,0.038,0.038,0,0,0,0,0,0,0,0.0384,0.0389,0.045,0.0442,0.0441,0.0416,0.0419,0.0415,0.0417,0.0428,0.0426,0.0432,0.0401,0.04,0.0398,0.0392,0.0381,0.038,0.038,0.0379,0.0398,0.0399,0,0,0,0,0,0,0.0394,0.0388,0.045,0.0451,0.0413,0.0419,0.0422,0.044,0.0418,0.0415,0.0432,0.043,0.0402,0.0399,0.0396,0.041,0.038,0.0379,0.0379,0.0397,0.0398,0.0399,0,0,0,0,0,0,0.0392,0.04,0.045,0.042,0.0426,0.0422,0.0442,0.044,0.0437,0.0422,0.0417,0.0431,0.0401,0.0398,0.0401,0.0408,0.0379,0.0378,0.0396,0.0398,0.0399,0.0436,0,0,0,0,0,0,0.039,0.0399,0.0414,0.0422,0.0428,0.0471,0.0443,0.0441,0.0443,0.044,0.042,0.0415,0.04,0.0403,0.04,0.0406,0.0378,0.0395,0.0397,0.0398,0.0434,0.0439,0.0443,0,0,0,0,0,0.0387,0.0416,0.0415,0.0422,0.0449,0.0472,0.0473,0.0464,0.0444,0.0455,0.0439,0.0416,0.0412,0.0403,0.04,0.0406,0.0394,0.0396,0.0398,0.0432,0.0438,0.0443,0,0,0,0,0,0,0.0389,0.0416,0.0415,0.0451,0.0465,0.0468,0.048,0.0467,0.0463,0.0458,0.043,0.0426,0.0432,0.0419,0.0409,0.0418,0.0398,0.04,0.0425,0.043,0.0435,0.0441,0.0377,0,0,0,0,0,0.0397,0.0423,0.0442,0.047,0.0481,0.0478,0.0484,0.0481,0.048,0.0476,0.0462,0.0448,0.0441,0.0435,0.0432,0.0438,0.0412,0.044,0.0444,0.0448,0.0453,0.0416,0.0418,0.0406,0.0406,0.0406,0,0,0.0406,0.0424,0.0438,0.0472,0.048,0.0506,0.0479,0.0499,0.0509,0.0474,0.0482,0.0467,0.0448,0.0455,0.0455,0.0442,0.044,0.0451,0.0454,0.0457,0.0419,0.0419,0.042,0.0408,0.0408,0.0407,0,0,0.0436,0.0454,0.0485,0.0501,0.0524,0.0528,0.0535,0.0544,0.0537,0.0547,0.0522,0.0511,0.0505,0.0489,0.0479,0.0508,0.0469,0.0508,0.0531,0.0496,0.0496,0.0496,0.0471,0.0468,0.0507,0.0507,0.0507,0,0.0447,0.0488,0.0496,0.0529,0.0546,0.054,0.0573,0.0571,0.0577,0.0572,0.0558,0.0538,0.0518,0.0513,0.0522,0.0516,0.0495,0.0509,0.05,0.05,0.0499,0.0472,0.0469,0.0509,0.0509,0.0508,0.0508,0,0.0497,0.0529,0.0551,0.059,0.0609,0.0639,0.0645,0.0652,0.0637,0.0627,0.0621,0.0595,0.0579,0.057,0.0553,0.0543,0.053,0.0511,0.0482,0.0502,0.0473,0.0469,0.0512,0.0511,0.051,0.051,0,0,0.0528,0.0577,0.0584,0.0607,0.0644,0.0665,0.0686,0.0699,0.0702,0.0689,0.0688,0.0663,0.0638,0.0626,0.06,0.0568,0.054,0.0542,0.0539,0.051,0.047,0.0452,0.0445,0.0517,0.0516,0.0515,0.0454,0,0.0567,0.0626,0.0643,0.0699,0.0732,0.0736,0.0755,0.0761,0.075,0.0749,0.0706,0.07,0.0662,0.0655,0.0618,0.0571,0.053,0.0559,0.0461,0.0459,0.0434,0.0439,0.0453,0.0399,0.045,0.0449,0.0448,0,0.0615,0.0646,0.0702,0.0748,0.0763,0.0791,0.0814,0.0833,0.0823,0.0812,0.079,0.076,0.0729,0.0686,0.06,0.0622,0.0548,0.0499,0.0494,0.0461,0.0432,0.0387,0.0388,0.0249,0.0441,0.0441,0.0442,0,0.0627,0.0691,0.073,0.0749,0.0798,0.0816,0.084,0.0847,0.0861,0.0854,0.0858,0.0811,0.0793,0.0704,0.0606,0.0602,0.0502,0.0479,0.0387,0.0385,0.037,0.0368,0.0218,0.0393,0.0393,0.0394,0.0394,0,0.0665,0.07,0.0737,0.076,0.0805,0.0836,0.0875,0.0885,0.0905,0.0926,0.0892,0.0898,0.0794,0.0727,0.0625,0.0503,0.0511,0.0393,0.0367,0.0385,0.0385,0.0241,0.015,0.0391,0.0392,0.0392,0.0393,0,0.0683,0.0705,0.0751,0.0797,0.0813,0.0845,0.0904,0.0932,0.0949,0.0977,0.0981,0.0959,0.0895,0.0778,0.0642,0.0532,0.0323,0.0355,0.0391,0.037,0.0164,0.0075,-0.009,-0.0187,0.0256,0.0255,0.0254,0,0.0701,0.0725,0.0769,0.0792,0.0816,0.0866,0.0904,0.0944,0.0977,0.1016,0.1033,0.0994,0.0981,0.0793,0.0606,0.0429,0.0288,0.0295,0.028,0.0152,0.0033,-0.0011,-0.0084,0.0276,0.0276,0.0275,0.0275,0,0.0734,0.0741,0.0773,0.0814,0.0854,0.0907,0.0963,0.0996,0.1047,0.1081,0.1122,0.1123,0.0972,0.0833,0.0594,0.0452,0.0187,0.028,0.0132,0.0022,-0.0021,-0.0125,0.0321,0.0271,0.0272,0.0272,0.0272,0.0272,0.0751,0.0772,0.0805,0.0845,0.089,0.0949,0.0998,0.1059,0.1126,0.1203,0.1205,0.1263,0.106,0.0764,0.052,0.0148,0.0132,0.0043,-0.0057,-0.0089,-0.0182,0.026,0.0188,0.0188,0.0188,0.0188,0.0188,0,0.0771,0.0797,0.0839,0.0888,0.094,0.0959,0.1041,0.1101,0.1184,0.1284,0.1345,0.137,0.1057,0.0739,0.0257,-0.0095,-0.0237,-0.0287,-0.0353,-0.0417,-0.003,-0.0029,-0.0132,-0.0132,-0.0132,-0.0131,-0.0131,-0.0131,0.0786,0.082,0.0841,0.0921,0.096,0.1036,0.1084,0.1175,0.127,0.1446,0.157,0.1675,0.1508,0.0527,-0.018,-0.0389,-0.065,-0.0707,-0.0859,-0.0595,-0.0571,-0.0548,-0.0568,-0.0782,-0.0783,-0.1182,-0.1187,-0.119]}],[{"header":{"parameterUnit":"m.s-1","parameterCategory":2,"la1":30.2991,"la2":30.254,"lo1":-89.0895,"lo2":-89.0444,"dy":0.0017,"dx":0.0017,"nx":28,"ny":28,"refTime":"2023-04-03T21:00:00:Z","depth":"2","parameterNumber":2,"parameterNumberName":"U-component_of_CURRENTS"},"data":[0,0,0,0,0,0,0,0,0,0,0,0,0,0,0,0,0,0,0,0,0,0,0,0,0,0,0,0,0,0,0,0,0,0,0,0,0,0,0,0,0,0,0,0,0,0,0,0,0,0,0,0,0,0,0,0,0,0,0.0696,0.0696,0,0.0736,0.0736,0.0736,0.075,0.075,0.075,0.075,0.0754,0.0754,0.0754,0,0,0,0,0,0,0,0,0,0,0,0,0,0.0636,0.0637,0.0696,0.0696,0.0697,0.0736,0.0736,0.0736,0.075,0.075,0.075,0.075,0.0754,0.0754,0.0754,0,0,0,0,0,0,0,0,0,0,0,0,0,0.0666,0.0637,0.0696,0.071,0.0712,0.0736,0.0736,0.0737,0.075,0.075,0.075,0.075,0.0754,0.0754,0.0754,0.0753,0,0,0.0755,0.0755,0,0,0,0,0,0,0,0,0.0664,0.0667,0.0707,0.0709,0.0712,0.074,0.0717,0.0741,0.075,0.0733,0.075,0.075,0.0748,0.0748,0.0753,0.0753,0.0754,0.0755,0.0755,0.0755,0.0755,0,0,0,0,0,0,0,0.0662,0.0666,0.0709,0.0708,0.0711,0.0717,0.0721,0.0721,0.0737,0.0735,0.0737,0.0745,0.0748,0.0753,0.0753,0.0754,0.0755,0.0755,0.0755,0.0755,0.0797,0.0799,0,0,0,0,0,0,0.0661,0.0664,0.0708,0.0711,0.069,0.0718,0.0722,0.0729,0.0738,0.074,0.0745,0.0745,0.0753,0.0753,0.0753,0.0803,0.0755,0.0755,0.0755,0.0796,0.0798,0.0799,0,0,0,0,0,0,0.066,0.0665,0.0706,0.069,0.0696,0.0719,0.0726,0.073,0.0753,0.0746,0.0747,0.0767,0.0753,0.0753,0.0778,0.0801,0.0755,0.0755,0.0795,0.0797,0.0798,0.0871,0,0,0,0,0,0,0.0658,0.0664,0.068,0.069,0.0697,0.0738,0.0727,0.0731,0.0758,0.0759,0.0765,0.0764,0.0753,0.0778,0.0778,0.0801,0.0755,0.0794,0.0796,0.0798,0.0867,0.0874,0.0881,0,0,0,0,0,0.0656,0.0675,0.068,0.0686,0.0714,0.0739,0.0744,0.0758,0.0759,0.0778,0.0784,0.0765,0.0791,0.078,0.0779,0.0802,0.0793,0.0795,0.0798,0.0864,0.0873,0.0881,0,0,0,0,0,0,0.0668,0.0679,0.0685,0.071,0.0732,0.0743,0.0767,0.0771,0.0791,0.0797,0.0784,0.0785,0.0814,0.0799,0.0787,0.082,0.0787,0.0789,0.0837,0.0845,0.0852,0.085,0.0755,0,0,0,0,0,0.0676,0.0691,0.0705,0.0732,0.0743,0.0758,0.0774,0.0783,0.0798,0.0807,0.0814,0.0816,0.0821,0.0827,0.083,0.0851,0.0849,0.0863,0.087,0.0876,0.0874,0.0885,0.0892,0.0807,0.0807,0.0807,0,0,0.069,0.07,0.071,0.0736,0.0754,0.0773,0.0768,0.0802,0.0819,0.0804,0.084,0.0846,0.0833,0.0859,0.0869,0.0851,0.0909,0.0879,0.0885,0.0879,0.0888,0.0896,0.0904,0.0809,0.0808,0.0808,0,0,0.0714,0.0734,0.0748,0.0766,0.0797,0.0806,0.0819,0.0844,0.0859,0.0892,0.0884,0.0905,0.0919,0.0914,0.0909,0.0955,0.0948,0.0961,0.0994,0.1006,0.1013,0.1019,0.1068,0.1078,0.0962,0.0962,0.0963,0,0.0733,0.0746,0.0761,0.0779,0.0797,0.082,0.084,0.086,0.0893,0.0906,0.0914,0.0944,0.0939,0.0953,0.0975,0.097,0.0991,0.0965,0.1015,0.1021,0.1026,0.1075,0.1085,0.0966,0.0966,0.0965,0.0965,0,0.0753,0.0774,0.0791,0.0814,0.0838,0.0866,0.0888,0.0923,0.0947,0.0959,0.0999,0.1005,0.1021,0.1026,0.1016,0.1049,0.1062,0.1026,0.0995,0.1039,0.1088,0.1097,0.0972,0.097,0.0969,0.0968,0,0,0.0769,0.0795,0.0804,0.0816,0.0856,0.0877,0.0918,0.0951,0.0982,0.1019,0.1054,0.1071,0.1087,0.1083,0.1081,0.1091,0.1161,0.1084,0.1083,0.1136,0.1228,0.1339,0.1359,0.1141,0.1142,0.1142,0.1263,0,0.0782,0.0807,0.0822,0.086,0.0874,0.091,0.0945,0.0983,0.1021,0.1069,0.1079,0.1115,0.1103,0.113,0.114,0.1158,0.1181,0.1133,0.1173,0.1175,0.1269,0.1371,0.1102,0.1196,0.1272,0.1273,0.1274,0,0.0792,0.0806,0.0834,0.0872,0.0885,0.092,0.0985,0.1019,0.108,0.1114,0.1154,0.1172,0.1216,0.1187,0.1246,0.1225,0.1235,0.1238,0.1242,0.132,0.1302,0.1155,0.1208,0.1289,0.1287,0.1286,0.1285,0,0.0775,0.0815,0.0837,0.0851,0.0901,0.0936,0.0973,0.1038,0.1078,0.1152,0.1205,0.124,0.1293,0.1299,0.1354,0.13,0.1427,0.134,0.1446,0.1454,0.122,0.1208,0.1362,0.1362,0.1362,0.1362,0.1361,0,0.0767,0.0788,0.0838,0.085,0.0896,0.0937,0.1,0.1048,0.1125,0.1184,0.1234,0.1305,0.1324,0.1405,0.1401,0.1512,0.1475,0.1488,0.1501,0.1246,0.1236,0.1289,0.1279,0.1366,0.1365,0.1364,0.1363,0,0.0738,0.077,0.0798,0.0859,0.0887,0.0923,0.1013,0.1059,0.1148,0.1234,0.1267,0.138,0.1519,0.1572,0.1622,0.1612,0.1665,0.1696,0.1442,0.1425,0.166,0.1652,0.1804,0.1809,0.1813,0.1817,0.182,0,0.0719,0.0732,0.08,0.0828,0.0861,0.0925,0.0973,0.106,0.1114,0.1283,0.1325,0.1504,0.1619,0.1806,0.1766,0.1825,0.1853,0.1672,0.1509,0.1713,0.1709,0.1694,0.1681,0.122,0.1218,0.1216,0.1215,0,0.0685,0.072,0.0744,0.0798,0.0854,0.0906,0.0985,0.1028,0.1145,0.1244,0.1401,0.1513,0.1682,0.1666,0.1797,0.1757,0.1645,0.1649,0.1898,0.1194,0.1185,0.1175,0.1175,0.1199,0.1201,0.1202,0.1203,0.1204,0.0667,0.0677,0.0719,0.0767,0.0824,0.0879,0.0911,0.0997,0.1088,0.121,0.1359,0.1456,0.1485,0.1548,0.1572,0.156,0.1636,0.1523,0.1517,0.1515,0.147,0.1473,0.1535,0.1538,0.1541,0.1543,0.1546,0,0.0636,0.0658,0.0689,0.0738,0.0771,0.0833,0.091,0.0925,0.1008,0.1119,0.1243,0.1148,0.1186,0.1284,0.1199,0.1252,0.1084,0.1258,0.0987,0.1002,0.1016,0.0936,0.0864,0.0863,0.0862,0.0862,0,0,0.0622,0.0631,0.0642,0.0674,0.0724,0.0766,0.0803,0.0834,0.0881,0.0926,0.0948,0.1034,0.1136,0.0941,0.0952,0.0926,0.0941,0.0869,0.1389,0.1074,0.1087,0.1126,0.1019,0,0,0,0,0]},{"header":{"parameterUnit":"m.s-1","parameterCategory":2,"la1":30.2991,"la2":30.254,"lo1":-89.0895,"lo2":-89.0444,"dy":0.0017,"dx":0.0017,"nx":28,"ny":28,"refTime":"2023-04-03T21:00:00:Z","depth":"2","parameterNumber":3,"parameterNumberName":"V-component_of_CURRENTS"},"data":[0,0,0,0,0,0,0,0,0,0,0,0,0,0,0,0,0,0,0,0,0,0,0,0,0,0,0,0,0,0,0,0,0,0,0,0,0,0,0,0,0,0,0,0,0,0,0,0,0,0,0,0,0,0,0,0,0,0,-0.024,-0.0241,0,-0.0303,-0.0303,-0.0304,-0.0381,-0.0382,-0.0384,-0.0385,-0.0481,-0.0483,-0.0484,0,0,0,0,0,0,0,0,0,0,0,0,0,-0.022,-0.022,-0.024,-0.0241,-0.0242,-0.0303,-0.0303,-0.0304,-0.0381,-0.0382,-0.0384,-0.0386,-0.0481,-0.0482,-0.0484,0,0,0,0,0,0,0,0,0,0,0,0,0,-0.0249,-0.022,-0.024,-0.0289,-0.0294,-0.0303,-0.0304,-0.0304,-0.038,-0.0382,-0.0385,-0.0386,-0.048,-0.0482,-0.0484,-0.0455,0,0,-0.049,-0.0491,0,0,0,0,0,0,0,0,-0.0247,-0.0249,-0.0281,-0.0285,-0.0291,-0.0338,-0.0332,-0.0357,-0.038,-0.0346,-0.0385,-0.0387,-0.0436,-0.0442,-0.0446,-0.046,-0.0464,-0.049,-0.0492,-0.0492,-0.0493,0,0,0,0,0,0,0,-0.0245,-0.0247,-0.0263,-0.0282,-0.0288,-0.0319,-0.0325,-0.0337,-0.0378,-0.0349,-0.0355,-0.0364,-0.0439,-0.0444,-0.0449,-0.0465,-0.049,-0.0492,-0.0493,-0.0494,-0.0555,-0.0556,0,0,0,0,0,0,-0.0236,-0.0245,-0.0261,-0.0265,-0.0276,-0.0318,-0.0324,-0.0319,-0.0377,-0.0388,-0.0362,-0.0367,-0.044,-0.0447,-0.0453,-0.0489,-0.0492,-0.0494,-0.0495,-0.0555,-0.0555,-0.0556,0,0,0,0,0,0,-0.0235,-0.0236,-0.0259,-0.0259,-0.0264,-0.0316,-0.031,-0.032,-0.0356,-0.0387,-0.0399,-0.0393,-0.0442,-0.045,-0.0489,-0.0491,-0.0495,-0.0497,-0.0554,-0.0555,-0.0556,-0.0519,0,0,0,0,0,0,-0.0234,-0.0235,-0.0239,-0.0258,-0.0264,-0.0276,-0.0308,-0.0319,-0.0357,-0.0366,-0.0417,-0.0426,-0.0444,-0.0486,-0.0491,-0.0494,-0.0498,-0.0554,-0.0555,-0.0555,-0.052,-0.0519,-0.0518,0,0,0,0,0,-0.0233,-0.0218,-0.0238,-0.0242,-0.0263,-0.0276,-0.0282,-0.0325,-0.0357,-0.0367,-0.0409,-0.0426,-0.0495,-0.0487,-0.0493,-0.0497,-0.0553,-0.0554,-0.0555,-0.0521,-0.0519,-0.0518,0,0,0,0,0,0,-0.0216,-0.0225,-0.0248,-0.024,-0.0266,-0.029,-0.0304,-0.0335,-0.0374,-0.0393,-0.0428,-0.0439,-0.0475,-0.0492,-0.0483,-0.052,-0.0528,-0.0531,-0.05,-0.0499,-0.0498,-0.048,-0.05,0,0,0,0,0,-0.0211,-0.0203,-0.0228,-0.0226,-0.0238,-0.0277,-0.0294,-0.0323,-0.0355,-0.0377,-0.0413,-0.0452,-0.0475,-0.0495,-0.0519,-0.0533,-0.0548,-0.0542,-0.0541,-0.054,-0.0531,-0.0563,-0.0563,-0.0559,-0.0559,-0.0559,0,0,-0.0207,-0.0211,-0.021,-0.0223,-0.0248,-0.0253,-0.0293,-0.0319,-0.0329,-0.0378,-0.0412,-0.045,-0.048,-0.0501,-0.0518,-0.0521,-0.0549,-0.0541,-0.054,-0.0532,-0.0564,-0.0564,-0.0564,-0.056,-0.056,-0.056,0,0,-0.0186,-0.0198,-0.0188,-0.0202,-0.0236,-0.0252,-0.0264,-0.0303,-0.033,-0.0361,-0.0401,-0.0441,-0.0481,-0.0499,-0.0512,-0.0518,-0.0543,-0.0536,-0.0512,-0.0543,-0.0543,-0.0543,-0.0556,-0.0558,-0.0533,-0.0533,-0.0533,0,-0.019,-0.0171,-0.0191,-0.0187,-0.0196,-0.025,-0.0248,-0.0271,-0.0322,-0.0336,-0.0372,-0.0439,-0.0473,-0.0486,-0.0496,-0.0513,-0.0534,-0.0511,-0.054,-0.054,-0.0541,-0.0554,-0.0557,-0.0531,-0.0531,-0.0531,-0.0532,0,-0.0159,-0.0154,-0.015,-0.0156,-0.0167,-0.0175,-0.0205,-0.023,-0.0275,-0.0302,-0.0346,-0.0396,-0.0438,-0.0456,-0.0479,-0.0501,-0.0514,-0.0535,-0.0538,-0.0539,-0.0553,-0.0556,-0.0529,-0.0529,-0.053,-0.053,0,0,-0.0145,-0.013,-0.0134,-0.0128,-0.0152,-0.0155,-0.0165,-0.0184,-0.0192,-0.0258,-0.0268,-0.033,-0.038,-0.0398,-0.044,-0.0467,-0.0496,-0.0506,-0.0508,-0.0508,-0.0558,-0.0487,-0.0484,-0.0529,-0.053,-0.053,-0.0562,0,-0.0126,-0.0097,-0.0097,-0.0083,-0.0072,-0.0105,-0.0103,-0.013,-0.0165,-0.0188,-0.0251,-0.0289,-0.035,-0.0381,-0.0418,-0.0476,-0.0505,-0.0485,-0.0565,-0.0567,-0.0496,-0.0485,-0.0518,-0.0542,-0.0565,-0.0566,-0.0566,0,-0.0103,-0.0081,-0.0059,-0.0034,-0.0035,-0.0039,-0.0044,-0.0051,-0.0087,-0.0118,-0.0171,-0.0225,-0.0282,-0.0337,-0.0434,-0.0424,-0.049,-0.0534,-0.0537,-0.0483,-0.0502,-0.0548,-0.0547,-0.0571,-0.0571,-0.0571,-0.057,0,-0.0083,-0.0055,-0.0033,-0.0029,-0.0016,-0.0017,-0.0021,-0.0043,-0.0035,-0.0087,-0.0089,-0.0176,-0.0214,-0.0313,-0.041,-0.0438,-0.0497,-0.0547,-0.054,-0.0536,-0.0583,-0.058,-0.0613,-0.0613,-0.0613,-0.0613,-0.0613,0,-0.0054,-0.0038,-0.0026,-0.0017,0.001,0.0004,0.0021,0.0004,-0.0001,0.0027,-0.0065,-0.0043,-0.0215,-0.0265,-0.0376,-0.0444,-0.0477,-0.0523,-0.0536,-0.0569,-0.0565,-0.0609,-0.0608,-0.0614,-0.0614,-0.0613,-0.0613,0,-0.0039,-0.0033,-0.0006,0.0011,0.0017,0.0025,0.0052,0.0079,0.0057,0.0094,0.0078,0.004,-0.0016,-0.0151,-0.0287,-0.0377,-0.0465,-0.0483,-0.0492,-0.0503,-0.05,-0.0497,-0.0497,-0.0494,-0.0492,-0.0491,-0.0489,0,-0.0025,-0.0011,0.0008,0.0026,0.0029,0.005,0.0082,0.0087,0.0139,0.0174,0.0219,0.0175,0.0205,0.0056,-0.0155,-0.0321,-0.0365,-0.0441,-0.0495,-0.0473,-0.0487,-0.0487,-0.0487,-0.0558,-0.0557,-0.0556,-0.0556,0,0.0007,-0.0003,0.002,0.0057,0.0085,0.0146,0.0199,0.026,0.0296,0.0353,0.0461,0.0491,0.0339,0.0169,-0.0066,-0.0185,-0.0421,-0.0429,-0.0424,-0.0553,-0.0525,-0.054,-0.054,-0.0551,-0.0551,-0.0552,-0.0552,-0.0552,0.002,0.0042,0.0066,0.0105,0.0147,0.0253,0.0335,0.0436,0.0555,0.0668,0.0668,0.0666,0.0382,0.008,-0.0094,-0.0316,-0.0321,-0.0444,-0.0449,-0.0454,-0.0427,-0.0394,-0.039,-0.0389,-0.0389,-0.0389,-0.0389,0,0.0058,0.0087,0.0126,0.0194,0.0268,0.0273,0.0432,0.0545,0.0733,0.0769,0.0861,0.0549,0.0378,0.0097,-0.0231,-0.0391,-0.0451,-0.0434,-0.0517,-0.052,-0.0524,-0.0503,-0.0485,-0.0486,-0.0486,-0.0486,0,0,0.0086,0.0136,0.0165,0.0294,0.0341,0.0484,0.0589,0.0758,0.0824,0.0874,0.0793,0.0713,0.0345,0.006,-0.0174,-0.0317,-0.0366,-0.0337,-0.025,-0.0322,-0.0323,-0.0527,-0.0497,0,0,0,0,0]}],[{"header":{"parameterUnit":"m.s-1","parameterCategory":2,"la1":30.2991,"la2":30.254,"lo1":-89.0895,"lo2":-89.0444,"dy":0.0017,"dx":0.0017,"nx":28,"ny":28,"refTime":"2023-04-03T21:00:00:Z","depth":"4","parameterNumber":2,"parameterNumberName":"U-component_of_CURRENTS"},"data":[0,0,0,0,0,0,0,0,0,0,0,0,0,0,0,0,0,0,0,0,0,0,0,0,0,0,0,0,0,0,0,0,0,0,0,0,0,0,0,0,0,0,0,0,0,0,0,0,0,0,0,0,0,0,0,0,0,0,0.0411,0.0411,0,0.0425,0.0426,0.0426,0.048,0.0481,0.0482,0.0483,0.0519,0.0519,0.0519,0,0,0,0,0,0,0,0,0,0,0,0,0,0.0385,0.0386,0.0411,0.0411,0.0411,0.0425,0.0426,0.0426,0.0479,0.0481,0.0482,0.0484,0.0519,0.0519,0.0519,0,0,0,0,0,0,0,0,0,0,0,0,0,0.0398,0.0386,0.0411,0.0439,0.0442,0.0425,0.0426,0.0426,0.0479,0.0481,0.0483,0.0484,0.0519,0.0519,0.0519,0.0482,0,0,0.0518,0.0518,0,0,0,0,0,0,0,0,0.0398,0.0399,0.0435,0.0437,0.044,0.0452,0.043,0.0445,0.0479,0.0466,0.0483,0.0485,0.0497,0.0499,0.0498,0.0483,0.0485,0.0518,0.0518,0.0518,0.0518,0,0,0,0,0,0,0,0.0397,0.0399,0.0417,0.0435,0.0438,0.0436,0.044,0.0433,0.0472,0.0467,0.0471,0.0471,0.0499,0.0498,0.0499,0.0485,0.0518,0.0518,0.0518,0.0518,0.0495,0.0495,0,0,0,0,0,0,0.0394,0.0398,0.0417,0.0418,0.0422,0.0435,0.044,0.0447,0.0472,0.0477,0.0469,0.0473,0.0497,0.0499,0.0501,0.0515,0.0518,0.0518,0.0517,0.0496,0.0495,0.0494,0,0,0,0,0,0,0.0394,0.0396,0.0416,0.0407,0.041,0.0434,0.0441,0.0446,0.048,0.0473,0.0479,0.0501,0.0499,0.0501,0.0522,0.0515,0.0517,0.0517,0.0496,0.0495,0.0495,0.0506,0,0,0,0,0,0,0.0393,0.0396,0.041,0.0407,0.041,0.0428,0.044,0.0445,0.0474,0.0481,0.0502,0.0505,0.05,0.0522,0.0521,0.0514,0.0517,0.0497,0.0496,0.0495,0.0507,0.0506,0.0506,0,0,0,0,0,0.0392,0.0401,0.0411,0.0413,0.0426,0.0429,0.0431,0.0453,0.0475,0.049,0.0506,0.0506,0.0515,0.0522,0.0521,0.0514,0.0497,0.0496,0.0495,0.0507,0.0506,0.0506,0,0,0,0,0,0,0.04,0.0407,0.0418,0.0431,0.044,0.0439,0.0453,0.0468,0.0492,0.0507,0.0509,0.0512,0.0519,0.0517,0.0524,0.0503,0.0502,0.0501,0.0511,0.0511,0.051,0.0522,0.0517,0,0,0,0,0,0.0406,0.0417,0.0421,0.0435,0.0441,0.0453,0.0462,0.0478,0.049,0.0505,0.0517,0.052,0.0505,0.0514,0.0503,0.0503,0.0506,0.0493,0.0493,0.0493,0.05,0.0501,0.0502,0.0491,0.0491,0.0491,0,0,0.0414,0.0417,0.0426,0.0437,0.0447,0.0454,0.0464,0.0485,0.0499,0.0501,0.0533,0.0522,0.0504,0.0497,0.05,0.0503,0.0497,0.0491,0.0491,0.0499,0.05,0.0501,0.0502,0.049,0.0491,0.0491,0,0,0.0421,0.0439,0.0448,0.0457,0.0474,0.0474,0.0488,0.0503,0.0524,0.0538,0.0534,0.0531,0.0526,0.0508,0.0495,0.0488,0.0491,0.0479,0.0494,0.0494,0.0496,0.0497,0.0505,0.0507,0.0484,0.0484,0.0484,0,0.0431,0.0444,0.0452,0.0462,0.0471,0.0487,0.0499,0.0511,0.0534,0.0548,0.0556,0.0536,0.0525,0.0503,0.0496,0.0487,0.0495,0.0499,0.0495,0.0497,0.0498,0.0506,0.0508,0.0484,0.0484,0.0484,0.0484,0,0.0439,0.0458,0.0465,0.048,0.0489,0.0505,0.0515,0.0536,0.0556,0.0567,0.057,0.0549,0.054,0.0521,0.0506,0.0497,0.0501,0.0492,0.0501,0.05,0.0508,0.051,0.0485,0.0485,0.0485,0.0485,0,0,0.0435,0.0465,0.0471,0.0487,0.0504,0.0512,0.0529,0.0547,0.0569,0.058,0.0599,0.0559,0.0561,0.0545,0.052,0.0517,0.0522,0.0512,0.0512,0.0529,0.0536,0.0546,0.0549,0.0518,0.0518,0.0519,0.0539,0,0.0442,0.0462,0.0474,0.0501,0.0513,0.053,0.0545,0.0567,0.0582,0.0607,0.0591,0.0597,0.0565,0.0561,0.0549,0.053,0.0528,0.0518,0.0527,0.0527,0.0544,0.0552,0.0519,0.0541,0.0541,0.0542,0.0542,0,0.0444,0.0458,0.0482,0.0517,0.0527,0.0545,0.0573,0.0595,0.0623,0.0638,0.0639,0.0634,0.0622,0.0598,0.0576,0.0576,0.0558,0.0543,0.0544,0.0553,0.0542,0.054,0.0545,0.0545,0.0545,0.0545,0.0544,0,0.0429,0.0465,0.0486,0.0498,0.0534,0.0556,0.0584,0.0613,0.064,0.067,0.0685,0.0673,0.0674,0.0649,0.0613,0.0602,0.0598,0.0579,0.0571,0.0572,0.0552,0.055,0.0567,0.0567,0.0567,0.0567,0.0567,0,0.0421,0.0443,0.0489,0.0502,0.0538,0.0571,0.0611,0.0635,0.0678,0.0702,0.0711,0.0706,0.0689,0.0677,0.0639,0.0618,0.0619,0.0582,0.058,0.0555,0.0554,0.0553,0.0551,0.0568,0.0568,0.0568,0.0567,0,0.04,0.0429,0.0459,0.051,0.0532,0.0565,0.0635,0.0656,0.0707,0.0734,0.0747,0.0753,0.0742,0.0721,0.0688,0.0659,0.0632,0.062,0.061,0.0605,0.06,0.0599,0.0625,0.0625,0.0626,0.0626,0.0627,0,0.0389,0.0402,0.0462,0.0484,0.0514,0.0569,0.0597,0.0661,0.0679,0.0739,0.0738,0.0764,0.0751,0.0722,0.0701,0.0671,0.0648,0.0645,0.0608,0.0612,0.0607,0.0605,0.0602,0.0627,0.0628,0.0628,0.0628,0,0.0367,0.0394,0.0417,0.0463,0.05,0.0536,0.0586,0.0605,0.0665,0.071,0.0721,0.0728,0.0728,0.0708,0.0706,0.0665,0.0657,0.065,0.0648,0.0613,0.0616,0.061,0.0607,0.063,0.0629,0.0629,0.0629,0,0.0352,0.0362,0.0398,0.0438,0.0479,0.05,0.053,0.0559,0.0598,0.0669,0.0661,0.0686,0.071,0.0705,0.0684,0.0678,0.0661,0.0634,0.0633,0.0631,0.0624,0.0628,0.0651,0,0,0,0,0,0.0334,0.0343,0.0371,0.0407,0.0445,0.047,0.0515,0.0541,0.0597,0.0594,0.064,0.0634,0.0649,0.0657,0.065,0.0681,0.0656,0.0672,0.0622,0.0639,0.0637,0.0628,0,0,0,0,0,0,0.0319,0.0342,0.0356,0.0378,0.0397,0.0428,0.0456,0.0488,0.0495,0.0555,0.0556,0.0612,0.0619,0.0642,0.0639,0.0645,0.0608,0.0697,0.0696,0.064,0.0638,0.0637,0.0627,0,0,0,0,0]},{"header":{"parameterUnit":"m.s-1","parameterCategory":2,"la1":30.2991,"la2":30.254,"lo1":-89.0895,"lo2":-89.0444,"dy":0.0017,"dx":0.0017,"nx":28,"ny":28,"refTime":"2023-04-03T21:00:00:Z","depth":"4","parameterNumber":3,"parameterNumberName":"V-component_of_CURRENTS"},"data":[0,0,0,0,0,0,0,0,0,0,0,0,0,0,0,0,0,0,0,0,0,0,0,0,0,0,0,0,0,0,0,0,0,0,0,0,0,0,0,0,0,0,0,0,0,0,0,0,0,0,0,0,0,0,0,0,0,0,-0.0081,-0.0081,0,-0.0129,-0.013,-0.013,-0.0176,-0.0177,-0.0178,-0.0178,-0.0319,-0.0322,-0.0325,0,0,0,0,0,0,0,0,0,0,0,0,0,-0.0022,-0.0023,-0.0081,-0.0081,-0.0082,-0.0129,-0.013,-0.013,-0.0176,-0.0177,-0.0178,-0.0178,-0.0318,-0.0322,-0.0325,0,0,0,0,0,0,0,0,0,0,0,0,0,-0.0057,-0.0023,-0.0081,-0.011,-0.0114,-0.0129,-0.013,-0.0131,-0.0176,-0.0177,-0.0178,-0.0179,-0.0317,-0.0321,-0.0326,-0.0339,0,0,-0.0341,-0.0343,0,0,0,0,0,0,0,0,-0.0055,-0.0059,-0.0105,-0.0108,-0.0112,-0.0148,-0.0161,-0.0205,-0.0176,-0.0153,-0.0178,-0.0179,-0.0269,-0.0278,-0.0284,-0.0345,-0.0351,-0.0341,-0.0344,-0.0346,-0.0348,0,0,0,0,0,0,0,-0.0052,-0.0057,-0.01,-0.0106,-0.011,-0.0119,-0.0125,-0.0169,-0.0207,-0.0155,-0.0158,-0.0163,-0.0272,-0.0279,-0.0288,-0.0353,-0.0341,-0.0345,-0.0348,-0.035,-0.05,-0.0501,0,0,0,0,0,0,-0.0045,-0.0055,-0.0099,-0.0102,-0.0085,-0.012,-0.0126,-0.0135,-0.0205,-0.0216,-0.0162,-0.0165,-0.0271,-0.0282,-0.0293,-0.0371,-0.0346,-0.0351,-0.0353,-0.0499,-0.05,-0.0502,0,0,0,0,0,0,-0.0044,-0.0049,-0.0097,-0.0079,-0.0086,-0.012,-0.013,-0.0136,-0.0167,-0.021,-0.0222,-0.019,-0.0272,-0.0287,-0.0361,-0.0375,-0.0353,-0.0357,-0.0498,-0.0499,-0.0501,-0.049,0,0,0,0,0,0,-0.0042,-0.0048,-0.0058,-0.0079,-0.0086,-0.0118,-0.0129,-0.0136,-0.0167,-0.0172,-0.0237,-0.025,-0.0274,-0.0354,-0.0366,-0.0381,-0.0361,-0.0496,-0.0498,-0.05,-0.0489,-0.0491,-0.0493,0,0,0,0,0,-0.004,-0.0048,-0.0058,-0.0064,-0.0097,-0.0119,-0.0124,-0.015,-0.0168,-0.0183,-0.0237,-0.0249,-0.0375,-0.0359,-0.0373,-0.039,-0.0495,-0.0498,-0.05,-0.0488,-0.0491,-0.0493,0,0,0,0,0,0,-0.0034,-0.0054,-0.0066,-0.0082,-0.0104,-0.0127,-0.014,-0.0162,-0.0213,-0.0229,-0.0271,-0.0288,-0.0355,-0.0379,-0.036,-0.0439,-0.0434,-0.0439,-0.042,-0.0423,-0.0424,-0.0406,-0.0365,0,0,0,0,0,-0.0034,-0.0045,-0.0068,-0.0084,-0.0093,-0.0121,-0.0136,-0.0158,-0.02,-0.0223,-0.0278,-0.0331,-0.037,-0.0403,-0.0447,-0.0497,-0.049,-0.0515,-0.0517,-0.0518,-0.0513,-0.0513,-0.0514,-0.051,-0.051,-0.0509,0,0,-0.0038,-0.0049,-0.0058,-0.0083,-0.01,-0.0114,-0.0133,-0.0163,-0.0187,-0.0232,-0.0302,-0.0347,-0.0387,-0.044,-0.0471,-0.0466,-0.0516,-0.0521,-0.0522,-0.0516,-0.0516,-0.0516,-0.0516,-0.0511,-0.0511,-0.0511,0,0,-0.0041,-0.0059,-0.0066,-0.0081,-0.011,-0.0124,-0.0137,-0.0183,-0.0216,-0.0282,-0.0315,-0.037,-0.0452,-0.0472,-0.049,-0.053,-0.0528,-0.0551,-0.0546,-0.0546,-0.0546,-0.0545,-0.053,-0.0529,-0.0549,-0.0549,-0.0549,0,-0.0042,-0.0056,-0.0074,-0.0083,-0.0093,-0.0129,-0.014,-0.0173,-0.0247,-0.0282,-0.0309,-0.042,-0.0457,-0.0494,-0.0508,-0.0532,-0.0529,-0.0531,-0.0545,-0.0545,-0.0545,-0.053,-0.0528,-0.0549,-0.0549,-0.0549,-0.0549,0,-0.005,-0.0062,-0.0067,-0.0085,-0.01,-0.0118,-0.0154,-0.0195,-0.0247,-0.0294,-0.0373,-0.0426,-0.0486,-0.0505,-0.0521,-0.0541,-0.0538,-0.0546,-0.0531,-0.0544,-0.0528,-0.0526,-0.0549,-0.0549,-0.0549,-0.0549,0,0,-0.0043,-0.0066,-0.0068,-0.0073,-0.0103,-0.0114,-0.015,-0.0195,-0.0225,-0.0316,-0.0364,-0.0435,-0.0479,-0.0501,-0.0529,-0.0532,-0.0525,-0.0539,-0.054,-0.051,-0.0516,-0.0504,-0.0501,-0.0537,-0.0537,-0.0537,-0.0502,0,-0.0042,-0.0049,-0.0064,-0.0076,-0.0081,-0.0112,-0.0138,-0.0189,-0.0246,-0.0309,-0.0375,-0.0437,-0.0471,-0.0498,-0.0511,-0.0526,-0.0522,-0.0533,-0.0522,-0.0521,-0.0497,-0.0499,-0.0536,-0.0501,-0.0501,-0.05,-0.05,0,-0.0042,-0.0044,-0.0048,-0.0065,-0.0071,-0.0085,-0.0119,-0.0155,-0.0236,-0.0288,-0.036,-0.0418,-0.0459,-0.0478,-0.05,-0.0508,-0.0511,-0.0515,-0.0514,-0.0504,-0.0506,-0.0491,-0.0497,-0.0497,-0.0497,-0.0498,-0.0498,0,-0.0018,-0.0033,-0.0032,-0.0038,-0.0063,-0.0075,-0.0099,-0.016,-0.0191,-0.0278,-0.0305,-0.0384,-0.0409,-0.0438,-0.0469,-0.0482,-0.0477,-0.0492,-0.048,-0.0478,-0.0502,-0.0503,-0.0491,-0.0491,-0.0491,-0.0491,-0.0491,0,-0.0004,-0.0006,-0.0022,-0.0021,-0.0026,-0.0059,-0.0079,-0.012,-0.0176,-0.0204,-0.0296,-0.0313,-0.0398,-0.0419,-0.0452,-0.046,-0.0463,-0.0473,-0.047,-0.0499,-0.05,-0.05,-0.0501,-0.049,-0.049,-0.0491,-0.0491,0,0.0016,0.0007,0.0008,-0.0009,-0.0014,-0.0024,-0.0054,-0.0069,-0.0124,-0.0151,-0.0175,-0.0254,-0.0285,-0.0352,-0.0386,-0.0416,-0.0436,-0.0433,-0.0446,-0.0446,-0.0439,-0.0441,-0.0415,-0.0414,-0.0413,-0.0413,-0.0413,0,0.0022,0.0026,0.0026,0.0033,0.0024,0.001,0.0005,-0.0047,-0.0056,-0.0102,-0.0105,-0.0155,-0.0206,-0.0242,-0.0325,-0.0386,-0.0398,-0.0401,-0.0439,-0.0432,-0.0432,-0.0434,-0.0437,-0.0412,-0.0411,-0.0411,-0.0411,0,0.0035,0.0036,0.0041,0.0061,0.0065,0.0067,0.0057,0.006,0.0013,-0.0017,-0.0034,-0.0094,-0.0129,-0.0214,-0.0265,-0.0312,-0.0404,-0.0396,-0.0398,-0.0433,-0.0428,-0.0429,-0.0432,-0.0409,-0.0409,-0.041,-0.041,0,0.0043,0.0053,0.0067,0.0081,0.0096,0.011,0.0104,0.0102,0.0085,0.0042,0.0047,-0.003,-0.0081,-0.0172,-0.0218,-0.0274,-0.0292,-0.0306,-0.0313,-0.0317,-0.0316,-0.0297,-0.0227,0,0,0,0,0,0.0047,0.0062,0.0084,0.0102,0.0123,0.0125,0.0134,0.0125,0.0108,0.0113,0.0075,0.0037,-0.006,-0.0116,-0.0164,-0.0218,-0.031,-0.0277,-0.033,-0.0398,-0.0401,-0.0418,0,0,0,0,0,0,0.0049,0.0071,0.0085,0.0117,0.0132,0.0149,0.0153,0.0144,0.0142,0.0121,0.0071,0.0034,-0.0063,-0.0027,-0.0162,-0.0184,-0.0221,-0.0331,-0.0332,-0.0397,-0.0399,-0.0401,-0.042,0,0,0,0,0]}]]